Weather in Sviyagino

Russia / Primorsky Krai     44°49′00″N   133°04′35″E
temp.,
°C
wind,
m/s
gust,
m/s
humid.,
%
clouds,
%
prec.,
mm/h
press.,
hPa
HPBL,
m
20 september, mon
mon2001:00+9n2487100 0.0 102186
04:00+8nne2585100 0.0 1021127
07:00+7ne2285100 0.0 102239
10:00+13ene236199 0.0 1021360
13:00+19ene2337100 0.0 1019850
16:00+20ene1240100 0.0 1017502
19:00+15sw1163100 0.0 101711
22:00+15ese1168100 0.0 101611
21 september, tue
tue2101:00+15se2270100 0.0 101526
04:00+15ese3570100 0.0 101399
07:00+14ene2281100 0.2 101230
10:00+13ese4995100 1.8 1012245
13:00+14e5992100 1.4 1009508
16:00+14ese61294100 3.4 1005454
19:00+15ese61396100 8.8 1002488
22:00+14ese51095100 13.5 1002323
22 september, wed
wed2201:00+15se4995100 1.4 1001208
04:00+15se2495100 1.7 100193
07:00+15s1195100 0.6 100213
10:00+19s1287100 0.7 1003265
13:00+22wsw2370100 1.0 1002830
16:00+23nnw2160100 1.1 10021075
19:00+18nne2285100 4.4 100315
22:00+16nne51098100 8.6 1005426
23 september, thu
thu2301:00+15n3799100 4.7 1006293
04:00+12n4899100 9.2 1008332
07:00+12nnw4998100 11.4 1010474
10:00+11nnw3898100 20.9 1012504
13:00+11nnw3697100 2.9 1014527
16:00+11nnw2595100 3.3 1016519
19:00+10n2595100 0.2 1018424
22:00+10n2595100 0.3 1020369
24 september, fri
fri2401:00+10n1495100 0.1 1020322
04:00+10nne1296100 0.1 1022203
07:00+9ene1195100 0.1 1023134
10:00+10n1292100 0.1 1024299
13:00+10n3390100 0.1 1025501
16:00+10n2391100 0.2 1026322
19:00+10ene119275 0.0 102757
22:00+10e1192100 0.0 102822